Regional Weather Roundup
Issued by NWS Portland, ME

Home | Current Version | Previous Version | Text Only | Print | Product List | Glossary On
Versions: 1 2 3 4 5 6 7 8 9 10 11 12 13 14 15 16 17 18 19 20 21 22 23 24 25 26 27 28 29 30 31 32 33 34 35 36 37 38 39 40 41 42 43 44 45 46 47 48 49 50
000
ASUS41 KGYX 051305
RWRGYX
WEATHER ROUNDUP FOR MAINE AND NEW HAMPSHIRE
NATIONAL WEATHER SERVICE GRAY ME
900 AM EDT WED AUG 05 2015

MEZ002-005-006-010-012-015-018-020-021-024-026-027-029-051400-
MAINE

CITY           SKY/WX    TMP DP  RH WIND       PRES   REMARKS
PORTLAND       MOSUNNY   68  61  78 W10       29.84F
SANFORD        MOSUNNY   72  57  60 W5        29.87S
BAR HARBOR     MOSUNNY   66  66 100 S3        29.83S
WISCASSET      SUNNY     71  64  78 VRB5      29.84F
ROCKLAND       SUNNY     68  63  83 E6        29.81F
FRYEBURG       SUNNY     69  61  75 VRB6      29.86S
LEWISTONAUBURN SUNNY     68  61  77 SW6       29.85S
AUGUSTA        SUNNY     69  61  75 W5        29.84F
WATERVILLE     MOSUNNY   64  61  88 CALM      29.81F
BANGOR         MOSUNNY   69  61  75 CALM      29.83S
GREENVILLE       N/A     61  57  87 CALM      29.83S
MILLINOCKET    LGT RAIN  63  61  93 CALM      29.83S
HOULTON        MOSUNNY   66  60  81 SW5       29.79S
PRESQUE ISLE   PTSUNNY   63  55  77 CALM      29.78S
FRENCHVILLE    MOSUNNY   62  55  77 W9        29.76F
CARIBOU        CLOUDY    65  57  75 W10       29.77F
$$

NHZ002-005-008-009-011-012-014-051400-
NEW HAMPSHIRE

CITY           SKY/WX    TMP DP  RH WIND       PRES   REMARKS
PORTSMOUTH     MOSUNNY   72  60  65 W8        29.85S
ROCHESTER      SUNNY     73  58  59 VRB3      29.86S
NASHUA         SUNNY     74  59  59 NW6       29.88S
MANCHESTER     PTSUNNY   72  58  61 S6        29.86S
CONCORD        SUNNY     72  57  59 VRB3      29.87F
LACONIA        SUNNY     70  59  68 W3        29.86F
PLYMOUTH       PTSUNNY   58  58 100 CALM      29.88F
BERLIN         CLOUDY    66  57  72 CALM      29.88S
WHITEFIELD     CLOUDY    62  58  86 NW3       29.89R
JAFFREY        SUNNY     67  57  70 VRB5      29.91F
KEENE          SUNNY     68  54  60 S5        29.90F
LEBANON        SUNNY     69  60  73 VRB3      29.88S
MT WASHINGTON  FOG       43  43 100 W30         N/A  VSB 0
$$

VTZ005-007-008-051400-
VERMONT

CITY           SKY/WX    TMP DP  RH WIND       PRES   REMARKS
ST JOHNSBURY     N/A     64  58  80 MISG      29.86S
MONTPELIER     PTSUNNY   62  58  86 CALM      29.92S
BURLINGTON     PTSUNNY   69  56  62 CALM      29.86F
$$

MAZ007-012-024-CTZ003-RIZ002-NYZ038-NYZ072-051400-
SOUTHERN NEW ENGLAND AND NY

CITY           SKY/WX    TMP DP  RH WIND       PRES   REMARKS
BOSTON         PTSUNNY   76  60  57 VRB3      29.88S
WORCESTER      MOSUNNY   65  58  78 W7        29.91S
NANTUCKET      PTSUNNY   77  67  71 W6        29.87F
PROVIDENCE     MOSUNNY   74  62  66 S5        29.89F
HARTFORD       PTSUNNY   68  60  75 S6        29.90S
ALBANY         MOSUNNY   69  59  70 W8        29.92S
NEW YORK CITY  PTSUNNY   76  60  57 W6        29.91R
$$

ANZ081-ANZ082-ANZ150-NHZ014-MEZ023>029-051400-
COASTAL MARINE OBSERVATIONS

STATION/POSITION TIME  TEMP    WIND        PRES    WAVE
                       AIR SEA DIR/SP/G            HT/PER
                 (UTC) (F)     (DEG/KT/KT) (MB)    (FT/S)
MOUNT DESERT ROC 1300   60     220/  3/  3 1010.4F
MATINICUS ROCK   1200   61     240/  9/ 10 1010.1S
ISLE OF SHOALS   1200   63     220/  8/  9 1010.8R
JEFFREYS LEDGE   1203      64                N/A     3/ 8
CASHES LEDGE BUO 1250   63                 1010.5F   3/ 7
GEORGES BANK BUO 1150   68 65  320/  6/ 10 1011.5    8/ 9
$$

.............KEY..............
   WCI - WIND CHILL
   TC  - TEMPERATURE IN CELSIUS
   VSB - VISIBILITY IN MILES
   HX  - HEAT INDEX
   FAIR- INDICATES FEW OR NO CLOUDS BELOW 12,000 FT, WITH NO
         SIGNIFICANT WEATHER AND/OR OBSTRUCTIONS TO VISIBILITY.





USA.gov is the U.S. government's official web portal to all federal, state and local government web resources and services.